User: anonymous   Login
Location: Unspecified
(0.0000°N, 0.0000°E)
Time: 07:59:01
(UTC+00:00)
Language:

RS-3 - Orbit

View from above orbital plane
View from above orbital plane
View from above satellite
View from above satellite

Ground track
Ground track

The orbit data is extracted from the following two-line orbital elements,

1 12997U 81120A   21068.05107250  .00000025  00000-0  16100-3 0  9995
2 12997  82.9546 252.8780 0058052 340.3196 139.4032 12.15827598740878
Epoch (UTC): 09 March 2021 01:13:32
Eccentricity: 0.0058052
inclination: 82.9546°
perigee height: 1564 km
apogee height: 1657 km
right ascension of ascending node: 252.8780°
argument of perigee: 340.3196°
revolutions per day: 12.15827598
mean anomaly at epoch: 139.4032°
orbit number at epoch: 74087

The dashed part of the orbit path shows where the satellite is in the earth's shadow,  

DLR